Regional Weather Roundup
Issued by NWS

Home | Current Version | Previous Version | Graphics & Text | Print | Product List | Glossary On
Versions: 1 2 3 4 5 6 7 8 9 10 11 12 13 14 15 16 17 18 19 20 21 22 23 24 25 26 27 28
000
ASUS45 KPSR 302010
RWRAZ

ARIZONA HOURLY REGIONAL WEATHER ROUNDUP
NATIONAL WEATHER SERVICE PHOENIX AZ
100 PM MST FRI SEP 30 2016

NOTE: FAIR INDICATES FEW OR NO CLOUDS BELOW 12,000 FEET WITH NO
SIGNIFICANT WEATHER AND/OR OBSTRUCTIONS TO VISIBILITY.

AZZ001>003-036-302100-
NORTHWEST ARIZONA

CITY           SKY/WX    TMP DP  RH WIND       PRES   REMARKS
BULLHEAD CITY  SUNNY     95  48  20 SW9       29.97F
KINGMAN        MOSUNNY   83  50  31 E9        30.15F
$$

AZZ004>008-015-016-018-302100-
NORTH CENTRAL ARIZONA

CITY           SKY/WX    TMP DP  RH WIND       PRES   REMARKS
GRAND CANYON   MOSUNNY   67  46  47 W8        30.35F
PRESCOTT       PTSUNNY   72  50  45 S8        30.26F
FLAGSTAFF      PTSUNNY   66  49  54 VRB3      30.34F
PAYSON         MOSUNNY   75  50  41 VRB5G12   30.28F
PAGE           MOSUNNY   73  54  51 VRB3      30.22F
$$

AZZ009>014-017-302100-
NORTHEAST ARIZONA

CITY           SKY/WX    TMP DP  RH WIND       PRES   REMARKS
WINSLOW        CLOUDY    67  56  67 CALM      30.28F
SAINT JOHNS    MOSUNNY   71  50  47 NW12G17   30.28F
WINDOW ROCK    MOSUNNY   71  41  33 W7        30.33F
SHOW LOW       PTSUNNY   66  48  52 NW3       30.33F
$$

AZZ023-302100-
GREATER PHOENIX AREA

CITY           SKY/WX    TMP DP  RH WIND       PRES   REMARKS
PHOENIX        MOSUNNY   95  57  27 S8        29.98F
BUCKEYE        SUNNY     91  57  31 SE10      30.00F
GLENDALE       MOSUNNY   93  57  29 NE6       30.01F
LUKE AFB       SUNNY     93  58  30 S6        29.98F
DEER VALLEY    SUNNY     90  55  30 CALM      30.00F
SCOTTSDALE     SUNNY     92  54  27 SW8       30.02F
MESA-FALCON    MOSUNNY  N/A N/A N/A W8        29.98F
MESA-GATEWAY   MOSUNNY   91  57  31 VRB6      30.02F
CHANDLER       MOSUNNY   91  57  31 E6        30.00F
$$

AZZ027-028-302100-
SOUTHWEST MARICOPA COUNTY AND PINAL COUNTY

CITY           SKY/WX    TMP DP  RH WIND       PRES   REMARKS
CASA GRANDE    SUNNY     91  57  31 NE5       30.03F
GILA BEND      MOSUNNY   95  56  26 N8        29.95F
$$

AZZ503-504-507>509-302100-
SOUTHEAST ARIZONA

CITY           SKY/WX    TMP DP  RH WIND       PRES   REMARKS
TUCSON         MOSUNNY   85  59  41 S7        30.10F
DAVIS-MONTHAN  MOSUNNY   85  62  45 S5        30.08F
RYAN FIELD     PTSUNNY   88  59  37 MISG      30.08F
NOGALES        MOSUNNY   81  50  33 S10       30.16F
SIERRA VISTA   PTSUNNY   80  57  45 VRB5      30.22F
DOUGLAS        MOSUNNY   78  60  53 S6        30.19F
SAFFORD        SUNNY     80  58  46 SE3       30.13F
$$

AZZ020-021-025-026-031-302100-
SOUTHWEST ARIZONA

CITY           SKY/WX    TMP DP  RH WIND       PRES   REMARKS
YUMA           NOT AVBL
$$

CAZ031-033-041-043-047-048-061-302100-
SOUTHERN CALIFORNIA

CITY           SKY/WX    TMP DP  RH WIND       PRES   REMARKS
DOWNTOWN L.A.  SUNNY     86  59  39 VRB3      29.99F
L.A. AIRPORT   MOSUNNY   78  58  49 W14       30.01F
SAN DIEGO      MOSUNNY   81  65  58 NW8       30.02F
BURBANK        SUNNY     89  53  29 SE7       30.01F
ONTARIO        MOSUNNY   90  48  23 W8        30.01F
RIVERSIDE      SUNNY     92  47  21 VRB5      30.00F
PALM SPRINGS   MOSUNNY   97  50  20 VRB6      29.96F
EL CENTRO NAS  MOSUNNY  100  48  17 NE9       29.93F
IMPERIAL       SUNNY     99  54  22 CALM      29.92F
BLYTHE         SUNNY     94  52  24 CALM      29.95F
NEEDLES        SUNNY     97  50  20 CALM      29.98F
$$

NVZ020-UTZ003-302100-
SOUTHERN NEVADA-UTAH

CITY           SKY/WX    TMP DP  RH WIND       PRES   REMARKS
LAS VEGAS      MOSUNNY   87  44  22 VRB7      30.06F
SALT LAKE CITY MOSUNNY   77  48  35 S16       30.15F
$$

NMZ009-TXZ055-302100-
NEW MEXICO-WEST TEXAS

CITY           SKY/WX    TMP DP  RH WIND       PRES   REMARKS
ALBUQUERQUE    MOSUNNY   71  50  47 VRB5      30.25F
EL PASO        MOSUNNY   71  59  65 S8        30.20F
$$


........................KEY........................
SKY/WX - SKY CONDITION/WEATHER
TMP    - TEMPERATURE IN FAHRENHEIT
DP     - DEW POINT IN FAHRENHEIT
RH     - RELATIVE HUMIDITY IN PERCENT
WIND   - DIRECTION AND SPEED IN MILES PER HOUR (MPH)
VRB    - VARIABLE WIND DIRECTION
PRES   - MEAN SEA LEVEL PRESSURE IN INCHES OF MERCURY
         F - FALLING PRESSURE   R - RISING PRESSURE
         S - STEADY PRESSURE
VSB    - VISIBILITY IN MILES
HX     - HEAT INDEX IN FAHRENHEIT
WCI    - WIND CHILL INDEX IN FAHRENHEIT
TC     - TEMPERATURE IN CELSIUS WHICH IS ALSO KNOWN AS
         TEMPERATURE IN CENTIGRADE
AFB    - AIR FORCE BASE
         LUKE AFB IS LUKE AIR FORCE BASE
         DAVIS-MONTHAN IS DAVIS-MONTHAN AIR FORCE BASE
NAS    - NAVAL AIR STATION
         EL CENTRO NAS IS EL CENTRO NAVAL AIR STATION
N/A    - NOT AVAILABLE





USA.gov is the U.S. government's official web portal to all federal, state and local government web resources and services.